Content
SEND FEEDBACK

Daily
Averages
Monthly
Summary
United States of America

MINDEN, LOUISIANA


Home > North America > United States > Louisiana
Elevation: 221 feet     Latitude: 32 35N     Longitude: 093 17W

WEATHER
 
SELECT A DAY
Number of Records: 66,995;   Date Range: 7/19/11 - 9/20/14
 
SHARE

PRINT THIS DATA

[ ← Previous Day ]
WEATHER ALMANAC - JANUARY 31, 2013
[ Next Day → ]
[ °C ]   °F
Weather ElementAverageHighLow
Temperature46.8 °F63.9 °F (2:55 pm)29.8 °F (7:15 am)
Dewpoint28 °F33.8 °F (10:55 pm)21.7 °F (1:55 pm)
Humidity56.7 %95 % (1:35 am)21 % (1:55 pm)
Barometer30.21 in30.29 in (11:55 pm)30.14 in (12:55 am)
Wind Speed4.5 mph13.8 mph (3:15 pm)
Wind Gust19.6 mph (10:55 am)
Weather ElementAverage
Visibility10 mi
Wind DirectionESE (113 °)

Weather ElementTotal
Precipitation---
Heating Degree Days18.2 (Base 65)
Averaged from 67 records on January 31, 2013
WEATHER CONDITIONS BREAKOUT
WIND DIRECTION BREAKOUT
WEATHER BY HOUR - JANUARY 31, 2013
[ °C ]   °F
Local TimeTemperatureDewpointHumidityBarometerVisibilityWind DirectionWind SpeedGust SpeedPrecipitationEventsConditions
12:35 AM32.4 °F30.6 °F93 %30.15 in10.0 miCalmClear
12:55 AM32.0 °F30.4 °F94 %30.14 in10.0 miCalmClear
1:15 AM31.1 °F29.3 °F93 %30.16 in10.0 miCalmClear
1:35 AM31.1 °F29.8 °F95 %30.17 in10.0 miCalmClear
1:55 AM31.6 °F29.8 °F93 %30.17 in10.0 miCalmClear
2:15 AM32.0 °F30.0 °F92 %30.17 in10.0 miCalmClear
2:55 AM31.8 °F29.8 °F92 %30.17 in10.0 miCalmClear
3:15 AM30.2 °F28.9 °F95 %30.17 in10.0 miCalmClear
3:35 AM30.9 °F29.3 °F94 %30.17 in10.0 miCalmClear
3:55 AM30.2 °F28.4 °F93 %30.17 in10.0 miCalmClear
4:15 AM32.4 °F30.6 °F93 %30.16 in10.0 miCalmClear
4:35 AM32.0 °F30.2 °F93 %30.17 in10.0 miCalmClear
4:55 AM32.0 °F30.2 °F93 %30.18 in10.0 miCalmClear
5:15 AM32.9 °F30.4 °F90 %30.17 in10.0 miCalmClear
5:35 AM32.7 °F29.8 °F89 %30.18 in10.0 miCalmClear
5:55 AM32.0 °F29.8 °F92 %30.18 in10.0 miCalmClear
6:15 AM30.9 °F28.6 °F91 %30.18 in10.0 miCalmClear
6:35 AM30.4 °F28.6 °F93 %30.18 in10.0 miCalmClear
6:55 AM30.9 °F29.3 °F94 %30.18 in10.0 miCalmClear
7:15 AM29.8 °F28.0 °F93 %30.20 in10.0 miCalmClear
7:55 AM33.3 °F30.9 °F91 %30.22 in10.0 miCalmClear
8:15 AM37.2 °F31.8 °F81 %30.23 in10.0 miCalmClear
8:35 AM39.7 °F32.2 °F74 %30.24 in10.0 miSSW (200°)5.8 mphClear
8:55 AM41.9 °F32.5 °F69 %30.25 in10.0 miSSW (200°)5.8 mphClear
9:15 AM44.6 °F31.8 °F61 %30.26 in10.0 miSW (220°)6.9 mphClear
9:35 AM47.5 °F30.2 °F51 %30.26 in10.0 miSSW (210°)6.9 mphClear
9:55 AM50.2 °F28.4 °F43 %30.25 in10.0 miSW (220°)9.2 mphClear
10:15 AM52.5 °F27.0 °F37 %30.26 in10.0 miSW (220°)10.4 mphClear
10:35 AM53.8 °F26.1 °F34 %30.26 in10.0 miSW (220°)11.5 mph16.1 mphClear
10:55 AM55.4 °F25.5 °F32 %30.26 in10.0 miSSW (210°)12.7 mph19.6 mphClear
11:15 AM56.8 °F25.7 °F30 %30.24 in10.0 miSW (230°)10.4 mphClear
11:35 AM58.1 °F25.3 °F28 %30.24 in10.0 miSW (230°)10.4 mph16.1 mphClear
11:55 AM58.8 °F24.4 °F27 %30.23 in10.0 miSW (230°)10.4 mphClear
12:15 PM60.3 °F24.3 °F25 %30.23 in10.0 miSSW (210°)6.9 mphClear
12:35 PM61.0 °F24.6 °F25 %30.22 in10.0 miSW (230°)6.9 mphClear
12:55 PM61.2 °F23.2 °F23 %30.22 in10.0 miWSW (250°)11.5 mphClear
1:15 PM61.7 °F22.3 °F22 %30.20 in10.0 miSW (220°)9.2 mph16.1 mphClear
1:35 PM62.4 °F22.5 °F22 %30.20 in10.0 miWSW (240°)11.5 mph19.6 mphClear
1:55 PM62.1 °F21.7 °F21 %30.19 in10.0 miWSW (240°)8.1 mph17.3 mphClear
2:15 PM63.3 °F24.1 °F22 %30.19 in10.0 miSW (220°)8.1 mphClear
2:35 PM63.3 °F23.4 °F22 %30.18 in10.0 miSW (230°)8.1 mphClear
2:55 PM63.9 °F23.7 °F22 %30.17 in10.0 miSouth (190°)10.4 mphClear
3:15 PM63.7 °F23.5 °F22 %30.17 in10.0 miWSW (240°)13.8 mph18.4 mphClear
3:35 PM63.7 °F23.5 °F22 %30.17 in10.0 miSW (230°)12.7 mph17.3 mphClear
3:55 PM63.1 °F23.5 °F22 %30.17 in10.0 miSSW (200°)10.4 mphClear
4:15 PM63.0 °F23.5 °F22 %30.17 in10.0 miSW (220°)9.2 mphClear
4:35 PM62.6 °F24.3 °F23 %30.17 in10.0 miSSW (200°)10.4 mphClear
4:55 PM61.9 °F23.9 °F23 %30.17 in10.0 miSSW (210°)10.4 mph16.1 mphClear
5:15 PM60.6 °F25.3 °F26 %30.17 in10.0 miSSW (210°)9.2 mphClear
5:35 PM58.3 °F26.2 °F29 %30.17 in10.0 miSSW (200°)4.6 mphClear
5:55 PM57.4 °F25.7 °F30 %30.16 in10.0 miSouth (180°)3.5 mphClear
6:15 PM56.7 °F26.6 °F32 %30.18 in10.0 miSouth (190°)5.8 mphClear
6:35 PM55.8 °F26.8 °F33 %30.19 in10.0 miSSW (200°)5.8 mphClear
6:55 PM53.8 °F28.0 °F37 %30.20 in10.0 miSSW (210°)5.8 mphClear
7:15 PM53.8 °F27.1 °F36 %30.21 in10.0 miSouth (190°)5.8 mphClear
7:35 PM53.6 °F27.1 °F36 %30.21 in10.0 miSouth (170°)3.5 mphClear
8:15 PM51.8 °F27.9 °F40 %30.23 in10.0 miCalmClear
8:35 PM50.5 °F29.1 °F44 %30.24 in10.0 miSSE (160°)3.5 mphClear
8:55 PM49.1 °F29.7 °F47 %30.24 in10.0 miCalmClear
9:15 PM46.6 °F31.1 °F55 %30.26 in10.0 miCalmClear
9:35 PM46.2 °F32.0 °F58 %30.27 in10.0 miCalmClear
10:15 PM43.2 °F32.9 °F67 %30.27 in10.0 miCalmClear
10:35 PM42.8 °F33.4 °F70 %30.27 in10.0 miCalmClear
10:55 PM40.6 °F33.8 °F77 %30.27 in10.0 miCalmClear
11:15 PM41.0 °F33.8 °F76 %30.27 in10.0 miCalmClear
11:35 PM40.5 °F33.8 °F77 %30.28 in10.0 miCalmClear
11:55 PM40.1 °F33.4 °F77 %30.29 in10.0 miSE (140°)5.8 mphClear
Hourly data recorded from KMNE, located miles away from Minden, Louisiana







STORIES FROM OUR PARTNERS